Regional Weather Roundup
Issued by NWS State College, PA

Home | Current Version | Previous Version | Graphics & Text | Print | Product List | Glossary On
Versions: 1 2 3 4 5 6 7 8 9 10 11 12 13 14 15 16 17 18 19 20 21 22 23 24 25 26 27 28 29 30 31 32 33 34 35 36 37 38 39 40 41 42 43 44 45 46 47 48 49 50
000
ASUS41 KCTP 020910
RWRCTP

REGIONAL WEATHER ROUNDUP
NATIONAL WEATHER SERVICE STATE COLLEGE PA
500 AM EDT THU OCT 02 2014

Note: "fair" indicates few or no clouds below 12,000 feet with no
significant weather and/or obstructions to visibility.

* = STATION THAT DOES NOT REPORT PRECIPITATION /E.G. RAIN...SNOW...ETC/
    THUNDER OR FOG.

PAZ002>004-007>009-013>016-020>023-029>032-021000-
WESTERN PENNSYLVANIA

CITY           SKY/WX    TMP DP  RH WIND       PRES   REMARKS
ERIE           CLEAR     57  53  86 S6        30.06R
MEADVILLE      CLEAR     54  52  93 CALM      30.08S FOG
FRANKLIN*      CLOUDY    50  46  87 CALM      30.10R VSB 1/2
NEW CASTLE     FOG       50  50 100 CALM      30.08S VSB<1/4
BEAVER COUNTY  NOT AVBL
BUTLER*        CLOUDY    52  48  87 CALM      30.10R VSB<1/4
PITTSBURGH INT FOG       50  50 100 CALM      30.06S VSB 1/8
PITTSBURGH     FOG       52  50  93 CALM      30.07R VSB<1/4
INDIANA*       PTCLDY    54  52  94 CALM      30.13R
LATROBE        CLEAR     50  50 100 SW3       30.09R FOG
WASHINGTON CO* CLOUDY    45  43  93 CALM      30.09R VSB 1/4
$$

PAZ004>006-010>012-017>019-024>028-033>037-041-042-045-046-049>053-021000-
CENTRAL PENNSYLVANIA

CITY           SKY/WX    TMP DP  RH WIND       PRES   REMARKS
BRADFORD       FOG       46  45  96 CALM      30.11S VSB 1/4
DUBOIS         FOG       54  54 100 SE8       30.10R VSB 3/4
CLEARFIELD     FOG       52  52 100 N3        30.11R VSB 1/4
JOHNSTOWN      CLOUDY    57  54  89 CALM      30.11R
ALTOONA        FOG       53  53 100 E3        30.11R VSB 1/4
STATE COLLEGE  FOG       52  52 100 CALM      30.12R VSB 1/4
WILLIAMSPORT   MOCLDY    57  54  89 CALM      30.10S
SELINSGROVE    CLOUDY    59  56  89 NE3       30.11S
FT INDIANTOWN  FOG       54  54 100 CALM      30.11R VSB 1/2
CAPITAL CITY   MOCLDY    58  55  90 CALM      30.10S
HARRISBURG     PTCLDY    58  57  97 NE3       30.09S
YORK           FOG       52  52 100 CALM      30.10R VSB 1/4
$$

PAZ038>040-043-044-047-048-054-055-060>062-067>071-021000-
EASTERN PENNSYLVANIA

CITY           SKY/WX    TMP DP  RH WIND       PRES   REMARKS
SCRANTON       CLOUDY    57  54  89 CALM      30.12R
MOUNT POCONO   CLOUDY    56  54  93 E5        30.13R FOG
ALLENTOWN      CLOUDY    61  56  83 NE5       30.10S
QUAKERTOWN*    CLOUDY    59  57  94 N3        30.11R
READING        PTCLDY    56  53  90 CALM      30.10R
LANCASTER      CLEAR     56  55  97 CALM      30.10S FOG
COATESVILLE    SUNNY     55  55 100 N5        30.11R
POTTSTOWN      CLOUDY    57  55  93 CALM      30.11R
BLUE BELL      CLOUDY    63  57  82 CALM      30.09R
DOYLESTOWN     CLOUDY    59  57  93 CALM      30.10R
WILLOW GROVE   NOT AVBL
NORTH PHILA    CLOUDY    62  55  77 NE7       30.11R
PHILADELPHIA   CLOUDY    64  56  75 NE12      30.09R
$$


USA.gov is the U.S. government's official web portal to all federal, state and local government web resources and services.